Location: Jackson
(42.2460°N, 84.4010°W)
Time: 18:04:33
(UTC-04:00)

Courier 1B Rocket - Pass Details

Date: 14 February 2026
Orbit: 920 x 1201 km, 28.2° (Epoch: 12 March)

Event Time Altitude Azimuth Distance (km) Brightness Sun altitude
Rises 01:03:10 0° 254° (WSW) 3,770 - -60.7°
Reaches altitude 10° 01:06:31 10° 238° (WSW) 2,869 - -60.6°
Maximum altitude 01:11:32 21° 193° (SSW) 2,235 - -60.4°
Drops below altitude 10° 01:16:47 10° 147° (SSE) 3,013 - -60.3°
Sets 01:20:24 0° 132° (SE) 4,015 - -60.1°
